Location: Bismarck
(46.7731°N, 100.8200°W)
Time: 23:29:01
(UTC-05:00)

ISS - Visible Passes

Search period start: 01 August 2014 00:00
Search period end: 11 August 2014 00:00
Orbit: 411 x 419 km, 51.6° (Epoch: 01 August)

Date Brightness Start Highest point End Pass type
(mag) Time Alt. Az. Time Alt. Az. Time Alt. Az.
01 Aug -1.1 01:55:45 24° NE 01:55:45 24° NE 01:57:27 10° ENE visible
01 Aug -1.8 03:28:37 12° WNW 03:31:26 38° N 03:34:37 10° E visible
01 Aug -3.4 05:05:00 10° WNW 05:08:22 77° SSW 05:11:44 10° ESE visible
02 Aug -1.6 02:41:56 32° NNW 02:42:28 34° N 02:45:35 10° ENE visible
02 Aug -3.1 04:16:09 10° WNW 04:19:31 74° NNE 04:22:53 10° ESE visible
02 Aug -2.3 22:37:01 10° SSW 22:39:51 26° SE 22:41:07 21° ESE visible
03 Aug -1.2 00:13:04 10° WSW 00:14:16 20° W 00:14:16 20° W visible
03 Aug -0.3 01:56:17 12° ENE 01:56:17 12° ENE 01:56:35 10° ENE visible
03 Aug -2.5 03:29:19 31° NW 03:30:37 54° NNE 03:33:55 10° E visible
03 Aug -2.6 05:04:10 10° WNW 05:07:15 34° SW 05:10:19 10° SSE visible
03 Aug -1.7 21:48:57 10° S 21:51:10 17° SE 21:53:24 10° E visible
03 Aug -3.4 23:24:09 10° WSW 23:27:30 89° NNW 23:29:58 17° ENE visible
04 Aug -1.1 01:01:21 10° WNW 01:02:56 23° WNW 01:02:56 23° WNW visible
04 Aug -2.8 04:19:13 42° SSE 04:19:13 42° SSE 04:21:45 10° SE visible
04 Aug -3.3 22:35:22 10° SW 22:38:39 60° SSE 22:41:57 10° ENE visible
05 Aug -2.0 00:12:18 10° W 00:15:29 41° NNW 00:16:40 29° NE visible
05 Aug -0.2 01:49:32 10° WNW 01:49:33 10° WNW 01:49:33 10° WNW visible
05 Aug -2.7 21:46:44 10° SSW 21:49:51 38° SE 21:52:59 10° ENE visible
05 Aug -2.4 23:23:15 10° W 23:26:31 50° NNW 23:29:46 10° ENE visible
06 Aug -1.2 01:00:34 10° WNW 01:02:37 27° NW 01:02:37 27° NW visible
06 Aug -2.9 22:34:15 10° WSW 22:37:34 67° NNW 22:40:55 10° ENE visible
07 Aug -1.6 00:11:33 10° WNW 00:14:39 34° N 00:15:29 29° NNE visible
07 Aug -3.3 21:45:20 10° WSW 21:48:40 85° SSE 21:52:01 10° ENE visible
07 Aug -1.7 23:22:29 10° WNW 23:25:37 36° N 23:28:14 14° ENE visible
08 Aug -0.9 00:59:36 10° WNW 01:01:05 22° NW 01:01:05 22° NW visible
08 Aug -2.0 22:33:24 10° W 22:36:36 42° NNW 22:39:49 10° ENE visible
09 Aug -1.8 00:10:39 10° WNW 00:13:47 36° N 00:13:47 36° N visible
09 Aug -2.4 21:44:20 10° W 21:47:36 53° NNW 21:50:53 10° ENE visible
09 Aug -1.7 23:21:38 10° WNW 23:24:44 34° N 23:26:28 20° NE visible
10 Aug -0.6 00:58:29 10° WNW 00:59:19 16° WNW 00:59:19 16° WNW visible
10 Aug -1.7 22:32:35 10° WNW 22:35:41 34° N 22:38:47 10° ENE visible
